This is the latest recevied weather packets stored in our database for station/object WX5HOT. If no packets are shown the sender has not sent any weather packets the latest 10 day(s).
| Time | Temp. | Humidity | Pressure | Rain* | Wind** | Luminosity | Snow |
|---|---|---|---|---|---|---|---|
| 1777639530 | 10° C | 74% | 1067 hPa | 0 mm | - | 104 W/m² | - |
| 1777639227 | 10° C | 74% | 1067.2 hPa | 0 mm | - | 105 W/m² | - |
| 1777638923 | 10° C | 76% | 1067 hPa | 0 mm | - | 93 W/m² | - |
| 1777638618 | 10° C | 76% | 1067 hPa | 0 mm | - | 84 W/m² | - |
| 1777638316 | 10° C | 76% | 1067 hPa | 0 mm | - | 87 W/m² | - |
| 1777638011 | 10° C | 76% | 1066.8 hPa | 0 mm | - | 74 W/m² | - |
| 1777637708 | 10° C | 75% | 1066.7 hPa | 0 mm | - | 61 W/m² | - |
| 1777637405 | 10° C | 75% | 1066.7 hPa | 0 mm | - | 51 W/m² | - |
| 1777637101 | 10° C | 75% | 1066.7 hPa | 0 mm | - | 40 W/m² | - |
| 1777636797 | 10° C | 74% | 1066.7 hPa | 0 mm | - | 31 W/m² | - |
| 1777636494 | 10° C | 72% | 1066.4 hPa | 0 mm | - | 23 W/m² | - |
| 1777636190 | 10° C | 71% | 1066.8 hPa | 0 mm | - | 23 W/m² | - |
| 1777635885 | 10° C | 72% | 1066.5 hPa | 0 mm | - | 15 W/m² | - |
| 1777635582 | 10° C | 74% | 1066.8 hPa | 0 mm | - | 10 W/m² | - |
| 1777635278 | 10° C | 73% | 1066.6 hPa | 0 mm | - | 7 W/m² | - |
| 1777634975 | 10° C | 72% | 1066.6 hPa | 0 mm | - | 4 W/m² | - |
| 1777634671 | 10° C | 72% | 1066.6 hPa | 0 mm | - | 2 W/m² | - |
| 1777634369 | 10° C | 73% | 1066.5 hPa | 0 mm | - | 1 W/m² | - |
| 1777634066 | 10° C | 73% | 1066.6 hPa | 0 mm | - | 1 W/m² | - |
| 1777633762 | 10° C | 73% | 1066.6 hPa | 0 mm | - | 0 W/m² | - |
| 1777633460 | 10° C | 72% | 1066.6 hPa | 0 mm | - | 0 W/m² | - |
| 1777633158 | 10° C | 73% | 1066.6 hPa | 0 mm | - | 0 W/m² | - |
| 1777632854 | 10° C | 73% | 1066.9 hPa | 0 mm | - | 0 W/m² | - |
| 1777632550 | 10° C | 73% | 1066.7 hPa | 0 mm | - | 0 W/m² | - |
| 1777632248 | 10° C | 74% | 1066.4 hPa | 0 mm | - | 0 W/m² | - |
* Rain latest hour (hover to see other rain measurements)
** Current wind speed in m/s (hover to see current wind gust speed)